TimeMST,TemperatureF,Dew PointF,Humidity,Sea Level PressureIn,VisibilityMPH,Wind Direction,Wind SpeedMPH,Gust SpeedMPH,PrecipitationIn,Events,Conditions,WindDirDegrees,DateUTC
12:41 AM,33.8,33.8,100,29.83,7.0,Calm,Calm,-,0.00,Rain,Light Rain,0,2013-03-07 07:41:00
12:50 AM,33.8,33.8,100,29.83,5.0,ENE,4.6,-,0.00,Rain,Light Rain,70,2013-03-07 07:50:00
12:53 AM,34.0,33.1,96,29.89,5.0,ENE,3.5,-,0.01,Rain,Light Rain,70,2013-03-07 07:53:00
1:04 AM,33.8,33.8,100,29.84,10.0,NE,3.5,-,0.00,,Overcast,40,2013-03-07 08:04:00
1:53 AM,34.0,33.1,96,29.93,10.0,SE,6.9,-,0.00,,Mostly Cloudy,130,2013-03-07 08:53:00
2:53 AM,33.1,32.0,96,29.96,7.0,Variable,4.6,-,N/A,,Mostly Cloudy,0,2013-03-07 09:53:00
3:53 AM,34.0,30.0,85,29.97,10.0,SSW,6.9,-,N/A,,Mostly Cloudy,200,2013-03-07 10:53:00
4:53 AM,35.1,28.0,76,29.98,10.0,SSW,8.1,-,N/A,,Overcast,200,2013-03-07 11:53:00
5:53 AM,35.1,27.0,72,30.01,10.0,SSW,9.2,-,N/A,,Mostly Cloudy,210,2013-03-07 12:53:00
6:53 AM,35.1,27.0,72,30.04,10.0,Calm,Calm,-,N/A,,Overcast,0,2013-03-07 13:53:00
7:53 AM,33.1,28.0,82,30.07,10.0,SSE,3.5,-,N/A,,Overcast,160,2013-03-07 14:53:00
8:53 AM,37.9,28.0,68,30.07,10.0,ESE,3.5,-,N/A,,Overcast,120,2013-03-07 15:53:00
9:53 AM,39.9,25.0,55,30.08,10.0,Calm,Calm,-,N/A,,Clear,0,2013-03-07 16:53:00
10:53 AM,41.0,25.0,53,30.09,10.0,South,9.2,-,N/A,,Overcast,190,2013-03-07 17:53:00
11:41 AM,41.0,24.8,53,30.03,10.0,NNW,4.6,-,N/A,,Overcast,330,2013-03-07 18:41:00
11:53 AM,42.1,26.1,53,30.10,10.0,West,5.8,-,N/A,,Overcast,280,2013-03-07 18:53:00
12:53 PM,43.0,25.0,49,30.08,10.0,West,12.7,-,N/A,,Overcast,280,2013-03-07 19:53:00
1:53 PM,44.1,21.9,42,30.07,10.0,NW,4.6,-,N/A,,Mostly Cloudy,310,2013-03-07 20:53:00
2:53 PM,45.0,23.0,42,30.06,10.0,WNW,8.1,-,N/A,,Partly Cloudy,300,2013-03-07 21:53:00
3:53 PM,44.1,21.9,42,30.05,10.0,NW,8.1,-,N/A,,Clear,320,2013-03-07 22:53:00
4:53 PM,45.0,19.9,37,30.05,10.0,NNW,9.2,-,N/A,,Mostly Cloudy,330,2013-03-07 23:53:00
5:53 PM,43.0,21.0,42,30.05,10.0,NNW,9.2,-,N/A,,Clear,330,2013-03-08 00:53:00
6:53 PM,37.0,23.0,57,30.07,10.0,Calm,Calm,-,N/A,,Clear,0,2013-03-08 01:53:00
7:53 PM,33.1,23.0,66,30.10,10.0,NW,5.8,-,N/A,,Clear,310,2013-03-08 02:53:00
8:53 PM,32.0,21.9,66,30.10,10.0,Calm,Calm,-,N/A,,Clear,0,2013-03-08 03:53:00
9:53 PM,30.0,21.9,72,30.11,10.0,NNW,3.5,-,N/A,,Clear,340,2013-03-08 04:53:00
10:53 PM,27.0,21.0,78,30.12,10.0,North,3.5,-,N/A,,Clear,360,2013-03-08 05:53:00
11:53 PM,27.0,21.0,78,30.12,10.0,Calm,Calm,-,N/A,,Clear,0,2013-03-08 06:53:00